Location: Châteauvieux
(47.2310°N, 1.3828°E)
Time: 00:38:03
(UTC+00:00)

NOSS 0 Rocket - Pass Details

Date: 15 May 2026
Orbit: 936 x 952 km, 70.0° (Epoch: 9 June)

Event Time Altitude Azimuth Distance (km) Brightness Sun altitude
Rises 23:20:35 0° 329° (NNW) 3,614 8.1 -23.4°
Reaches altitude 10° 23:23:08 10° 328° (NNW) 2,664 7.2 -23.4°
Maximum altitude 23:29:17 75° 245° (WSW) 975 3.9 -23.5°
Enters shadow 23:30:48 52° 177° (S) 1,150 3.9 -23.6°
